SB KEPS @ AMSAT $ORB13325.O Orbital Elements 13325.OSCAR
HR AMSAT ORBITAL ELEMENTS FOR OSCAR SATELLITES FROM WA5QGD FORT WORTH,TX November 21, 2013 BID: ORB13325.O TO ALL RADIO AMATEURS BT
Satellite: AO-07 Catalog number: 07530 Epoch time: 13324.20826457 Element set: 828 Inclination: 101.4491 deg RA of node: 308.1397 deg Eccentricity: 0.0011896 Arg of perigee: 345.0267 deg Mean anomaly: 082.1692 deg Mean motion: 12.53599701 rev/day Decay rate: -2.3e-07 rev/day^2 Epoch rev: 78533 Checksum: 303
Satellite: FO-29 Catalog number: 24278 Epoch time: 13325.13415273 Element set: 245 Inclination: 098.5343 deg RA of node: 002.5481 deg Eccentricity: 0.0351512 Arg of perigee: 117.3244 deg Mean anomaly: 313.5772 deg Mean motion: 13.53009857 rev/day Decay rate: -1.2e-07 rev/day^2 Epoch rev: 85253 Checksum: 283
Satellite: SO-33 Catalog number: 25509 Epoch time: 13325.83793894 Element set: 631 Inclination: 031.4317 deg RA of node: 254.9416 deg Eccentricity: 0.0350549 Arg of perigee: 098.2454 deg Mean anomaly: 301.9798 deg Mean motion: 14.29239914 rev/day Decay rate: 7.44e-06 rev/day^2 Epoch rev: 78746 Checksum: 348
Satellite: RS-22 Catalog number: 27939 Epoch time: 13325.73013472 Element set: 968 Inclination: 097.7967 deg RA of node: 145.3963 deg Eccentricity: 0.0014158 Arg of perigee: 049.5707 deg Mean anomaly: 310.6741 deg Mean motion: 14.64690330 rev/day Decay rate: 1.408e-05 rev/day^2 Epoch rev: 54235 Checksum: 324
Satellite: VO-52 Catalog number: 28650 Epoch time: 13325.14563796 Element set: 585 Inclination: 097.5633 deg RA of node: 335.6860 deg Eccentricity: 0.0027157 Arg of perigee: 122.4023 deg Mean anomaly: 280.4069 deg Mean motion: 14.84363740 rev/day Decay rate: 3.094e-05 rev/day^2 Epoch rev: 46236 Checksum: 316
Satellite: HO-68 Catalog number: 36122 Epoch time: 13325.68816107 Element set: 81 Inclination: 100.2842 deg RA of node: 018.6102 deg Eccentricity: 0.0007400 Arg of perigee: 356.1389 deg Mean anomaly: 003.9671 deg Mean motion: 13.16309023 rev/day Decay rate: -4.4e-07 rev/day^2 Epoch rev: 18913 Checksum: 265
/EX SB KEPS @ AMSAT $ORB13325.D Orbital Elements 13325.MICROS
HR AMSAT ORBITAL ELEMENTS FOR THE MICROSATS FROM WA5QGD FORT WORTH,TX November 21, 2013 BID: ORB13325.D TO ALL RADIO AMATEURS BT
Satellite: UO-11 Catalog number: 14781 Epoch time: 13324.78664216 Element set: 341 Inclination: 097.8833 deg RA of node: 023.7007 deg Eccentricity: 0.0010029 Arg of perigee: 135.4282 deg Mean anomaly: 224.7738 deg Mean motion: 14.81124455 rev/day Decay rate: 1.349e-05 rev/day^2 Epoch rev: 59711 Checksum: 295
Satellite: AO-16 Catalog number: 20439 Epoch time: 13325.63551046 Element set: 888 Inclination: 098.4873 deg RA of node: 262.1140 deg Eccentricity: 0.0011770 Arg of perigee: 057.6484 deg Mean anomaly: 066.0685 deg Mean motion: 14.32236110 rev/day Decay rate: 3.76e-06 rev/day^2 Epoch rev: 24477 Checksum: 302
Satellite: LO-19 Catalog number: 20442 Epoch time: 13324.79450021 Element set: 827 Inclination: 098.4574 deg RA of node: 262.5837 deg Eccentricity: 0.0012593 Arg of perigee: 050.0890 deg Mean anomaly: 339.4082 deg Mean motion: 14.32443103 rev/day Decay rate: 4.21e-06 rev/day^2 Epoch rev: 24485 Checksum: 286
Satellite: AO-27 Catalog number: 22825 Epoch time: 13324.83551325 Element set: 530 Inclination: 098.6373 deg RA of node: 267.3306 deg Eccentricity: 0.0008507 Arg of perigee: 181.4711 deg Mean anomaly: 202.3166 deg Mean motion: 14.29616093 rev/day Decay rate: 2.82e-06 rev/day^2 Epoch rev: 5101 Checksum: 277
Satellite: IO-26 Catalog number: 22826 Epoch time: 13325.09147345 Element set: 286 Inclination: 098.6316 deg RA of node: 267.8402 deg Eccentricity: 0.0009210 Arg of perigee: 174.2153 deg Mean anomaly: 249.4199 deg Mean motion: 14.29905975 rev/day Decay rate: 3.14e-06 rev/day^2 Epoch rev: 5118 Checksum: 310
Satellite: GO-32 Catalog number: 25397 Epoch time: 13324.87944819 Element set: 211 Inclination: 098.4390 deg RA of node: 285.9966 deg Eccentricity: 0.0001592 Arg of perigee: 152.6497 deg Mean anomaly: 261.0311 deg Mean motion: 14.23376468 rev/day Decay rate: 2.01e-06 rev/day^2 Epoch rev: 79823 Checksum: 327
Satellite: NO-44 Catalog number: 26931 Epoch time: 13325.14853892 Element set: 471 Inclination: 067.0514 deg RA of node: 214.8667 deg Eccentricity: 0.0006626 Arg of perigee: 262.8548 deg Mean anomaly: 249.1235 deg Mean motion: 14.29991453 rev/day Decay rate: 2.04e-06 rev/day^2 Epoch rev: 63386 Checksum: 322
Satellite: SO-50 Catalog number: 27607 Epoch time: 13325.54496890 Element set: 228 Inclination: 064.5556 deg RA of node: 145.0153 deg Eccentricity: 0.0032146 Arg of perigee: 098.3302 deg Mean anomaly: 287.2352 deg Mean motion: 14.73202196 rev/day Decay rate: 1.699e-05 rev/day^2 Epoch rev: 58689 Checksum: 323
Satellite: CO-55 Catalog number: 27844 Epoch time: 13325.89935677 Element set: 791 Inclination: 098.7010 deg RA of node: 332.6830 deg Eccentricity: 0.0010437 Arg of perigee: 149.7548 deg Mean anomaly: 281.5387 deg Mean motion: 14.21316735 rev/day Decay rate: 5.08e-06 rev/day^2 Epoch rev: 53913 Checksum: 334
Satellite: CO-57 Catalog number: 27848 Epoch time: 13324.88387971 Element set: 731 Inclination: 098.7101 deg RA of node: 331.2791 deg Eccentricity: 0.0010242 Arg of perigee: 158.2623 deg Mean anomaly: 320.3006 deg Mean motion: 14.21029001 rev/day Decay rate: 4.24e-06 rev/day^2 Epoch rev: 53891 Checksum: 284
Satellite: AO-51 Catalog number: 28375 Epoch time: 13325.85259682 Element set: 706 Inclination: 098.2240 deg RA of node: 275.1565 deg Eccentricity: 0.0082127 Arg of perigee: 258.9131 deg Mean anomaly: 154.1035 deg Mean motion: 14.41212778 rev/day Decay rate: 5.14e-06 rev/day^2 Epoch rev: 49404 Checksum: 305
Satellite: CP3 Catalog number: 31129 Epoch time: 13324.96608689 Element set: 604 Inclination: 097.9126 deg RA of node: 308.8891 deg Eccentricity: 0.0098298 Arg of perigee: 299.8454 deg Mean anomaly: 080.1873 deg Mean motion: 14.53996503 rev/day Decay rate: 2.550e-05 rev/day^2 Epoch rev: 34977 Checksum: 364
Satellite: CO-65 Catalog number: 32785 Epoch time: 13325.12766556 Element set: 793 Inclination: 097.7309 deg RA of node: 018.0437 deg Eccentricity: 0.0015058 Arg of perigee: 148.4514 deg Mean anomaly: 239.6986 deg Mean motion: 14.84336448 rev/day Decay rate: 3.105e-05 rev/day^2 Epoch rev: 30115 Checksum: 327
Satellite: PRISM Catalog number: 33493 Epoch time: 13325.73337216 Element set: 386 Inclination: 098.2332 deg RA of node: 128.1438 deg Eccentricity: 0.0018689 Arg of perigee: 042.8294 deg Mean anomaly: 317.4363 deg Mean motion: 14.87056773 rev/day Decay rate: 7.127e-05 rev/day^2 Epoch rev: 26132 Checksum: 314
Satellite: SOHLA-1 Catalog number: 33496 Epoch time: 13325.20743183 Element set: 203 Inclination: 098.1500 deg RA of node: 080.9772 deg Eccentricity: 0.0006920 Arg of perigee: 173.1671 deg Mean anomaly: 318.6125 deg Mean motion: 14.70456358 rev/day Decay rate: 1.033e-05 rev/day^2 Epoch rev: 25894 Checksum: 285
Satellite: SO-67 Catalog number: 35870 Epoch time: 13325.87803438 Element set: 632 Inclination: 097.1798 deg RA of node: 349.0391 deg Eccentricity: 0.0003486 Arg of perigee: 101.0189 deg Mean anomaly: 022.2365 deg Mean motion: 15.28934651 rev/day Decay rate: 1.0947e-04 rev/day^2 Epoch rev: 23233 Checksum: 319
Satellite: TISAT-1 Catalog number: 36799 Epoch time: 13325.73348085 Element set: 651 Inclination: 098.0298 deg RA of node: 051.3648 deg Eccentricity: 0.0013005 Arg of perigee: 277.8377 deg Mean anomaly: 082.1363 deg Mean motion: 14.84037849 rev/day Decay rate: 5.210e-05 rev/day^2 Epoch rev: 18193 Checksum: 322
Satellite: STUDSAT Catalog number: 36801 Epoch time: 13324.53462736 Element set: 717 Inclination: 098.0411 deg RA of node: 054.9197 deg Eccentricity: 0.0010518 Arg of perigee: 256.0428 deg Mean anomaly: 230.4146 deg Mean motion: 14.90667970 rev/day Decay rate: 2.0259e-04 rev/day^2 Epoch rev: 18198 Checksum: 303
Satellite: ALMASAT-1 Catalog number: 38078 Epoch time: 13326.09194571 Element set: 813 Inclination: 069.4762 deg RA of node: 192.4123 deg Eccentricity: 0.0661960 Arg of perigee: 303.5198 deg Mean anomaly: 125.9829 deg Mean motion: 14.33859695 rev/day Decay rate: 3.6147e-04 rev/day^2 Epoch rev: 9179 Checksum: 347
Satellite: XATCOBEO Catalog number: 38082 Epoch time: 13325.70475312 Element set: 696 Inclination: 069.4689 deg RA of node: 146.4946 deg Eccentricity: 0.0478584 Arg of perigee: 278.3553 deg Mean anomaly: 076.3625 deg Mean motion: 14.80956914 rev/day Decay rate: 9.0065e-04 rev/day^2 Epoch rev: 9302 Checksum: 347
Satellite: SOMP Catalog number: 39135 Epoch time: 13324.80657709 Element set: 374 Inclination: 064.8768 deg RA of node: 076.3622 deg Eccentricity: 0.0007002 Arg of perigee: 335.8714 deg Mean anomaly: 024.2073 deg Mean motion: 15.01578306 rev/day Decay rate: 1.0330e-04 rev/day^2 Epoch rev: 3233 Checksum: 274
Satellite: CUBEBUG-1 Catalog number: 39153 Epoch time: 13325.82329145 Element set: 601 Inclination: 098.0642 deg RA of node: 041.4912 deg Eccentricity: 0.0017213 Arg of perigee: 300.7661 deg Mean anomaly: 059.1832 deg Mean motion: 14.76815818 rev/day Decay rate: 2.651e-05 rev/day^2 Epoch rev: 3094 Checksum: 280
Satellite: ESTCUBE-1 Catalog number: 39161 Epoch time: 13325.83818599 Element set: 571 Inclination: 098.1193 deg RA of node: 043.1912 deg Eccentricity: 0.0009999 Arg of perigee: 341.6661 deg Mean anomaly: 018.4184 deg Mean motion: 14.69286527 rev/day Decay rate: 2.303e-05 rev/day^2 Epoch rev: 2914 Checksum: 322
/EX SB KEPS @ AMSAT $ORB13325.W Orbital Elements 13325.WEATHER
HR AMSAT ORBITAL ELEMENTS FOR WEATHER SATELLITES FROM WA5QGD FORT WORTH,TX November 21, 2013 BID: ORB13325.W TO ALL RADIO AMATEURS BT
Satellite: NOAA-10 Catalog number: 16969 Epoch time: 13325.54756987 Element set: 575 Inclination: 098.5326 deg RA of node: 349.8544 deg Eccentricity: 0.0013163 Arg of perigee: 141.6883 deg Mean anomaly: 019.9958 deg Mean motion: 14.27684837 rev/day Decay rate: 1.96e-06 rev/day^2 Epoch rev: 41439 Checksum: 367
